Location: Unspecified
(0.0000°N, 0.0000°E)
Time: 18:35:34
(UTC+00:00)

deb Briz - Pass Details

Date: 20 February 2026
Orbit: 1858 x 2172 km, 64.9° (Epoch: 11 March)

Event Time Altitude Azimuth Distance (km) Brightness Sun altitude
Rises 02:12:46 0° 171° (S) 5,472 ? -58.5°
Reaches altitude 10° 02:17:33 10° 155° (SSE) 4,524 ? -57.4°
Maximum altitude 02:25:27 20° 112° (ESE) 3,818 ? -55.5°
Drops below altitude 10° 02:33:28 10° 69° (ENE) 4,657 ? -53.6°
Sets 02:38:22 0° 54° (NE) 5,681 ? -52.4°
